Regional Weather Roundup
Issued by NWS San Diego, CA

Home | Current Version | Previous Version | Text Only | Print | Product List | Glossary On
Versions: 1 2 3 4 5 6 7 8 9 10 11 12 13 14 15 16 17 18 19 20 21 22 23 24 25 26 27 28 29 30 31 32 33 34 35 36 37 38 39 40 41 42 43 44 45 46 47 48 49 50
000
ASUS46 KSGX 201710
RWRSGX

SAN DIEGO HOURLY WEATHER ROUNDUP
NATIONAL WEATHER SERVICE SAN DIEGO CA
900 AM PST SAT DEC 20 2014

NOTE: "FAIR" INDICATES FEW OR NO CLOUDS BELOW 12,000 FEET WITH NO
SIGNIFICANT WEATHER AND/OR OBSTRUCTIONS TO VISIBILITY.

CAZ042-043-060-061-PZZ750-775-201800-

GREATER SAN DIEGO AREA

CITY           SKY/WX    TMP DP  RH WIND       PRES   REMARKS
LINDBERGH FLD  CLOUDY    56  47  71 CALM      30.21R
POINT LOMA       N/A     54  49  82 E3          N/A
CHULA VISTA      N/A     52  49  91 CALM      30.14R
IMPERIAL BEACH CLOUDY    55  50  83 E8        30.20S
BROWN FIELD    CLOUDY    53  46  77 S6        30.20R
MIRAMAR MCAS   CLOUDY    56  49  77 E3        30.19R
MONTGOMERY FLD CLOUDY    53  48  83 CALM      30.20R

$$

NORTH SAN DIEGO COUNTY

CITY           SKY/WX    TMP DP  RH WIND       PRES   REMARKS
CAMP PENDLETON CLOUDY    48  45  89 CALM      30.21R FOG
OCEANSIDE AP   CLOUDY    50  46  86 NE3       30.19R
VISTA            N/A     53  49  87 CALM      30.18F
CARLSBAD       CLOUDY    54  49  83 E3        30.18S
DEL MAR          N/A     54  52  93 CALM      30.22R
FALLBROOK        N/A     51  50  95 CALM      30.22S
SAN MARCOS       N/A     52  47  86 E2        30.18S
POWAY            N/A     49  47  93 CALM      30.23R

$$

EAST SAN DIEGO COUNTY

CITY           SKY/WX    TMP DP  RH WIND       PRES   REMARKS
RAMONA         CLOUDY    47  44  90 CALM      30.20R
SANTEE LAKES     N/A     49  47  95 CALM      30.23R
LA MESA          N/A     51  46  82 E5        30.15R
JAMUL            N/A     47  46  95 CALM      30.21R
DESCANSO N       N/A     45  40  82 CALM      30.13R
MT. LAGUNA OBS   N/A     45  22  39 NW9       29.76R
CAMPO            N/A     40  36  86 W3        30.16R

$$

ORANGE COUNTY AND THE LOS ANGELES BASIN

CITY           SKY/WX    TMP DP  RH WIND       PRES   REMARKS
JOHN WAYNE AP  CLOUDY    58  49  72 CALM      30.20R
LAGUNA BEACH     N/A     52  51  95 NW2       30.16R
LAKE FOREST FR   N/A     54  46  74 CALM      30.12R
SANTA ANA        N/A     53  50  90 CALM      30.15R
HUNTINGTON BCH   N/A     51  50  97 CALM      30.21R
LOS ALAMITOS   CLOUDY    53  50  89 NE5       30.20R
FULLERTON      CLOUDY    55  49  80 CALM      30.19R HAZE
LONG BEACH     CLOUDY    54  50  86 NE3       30.20R
L.A. AP        CLOUDY    54  47  77 E5        30.20R
L.A. DOWNTOWN  CLOUDY    56  46  69 CALM      30.19R

$$

THE INLAND EMPIRE

CITY           SKY/WX    TMP DP  RH WIND       PRES   REMARKS
CORONA         CLOUDY    47  47 100 CALM      30.22R FOG
CHINO          CLOUDY    49  46  90 CALM      30.22R FOG
ONTARIO        CLOUDY    51  45  79 CALM      30.20R
SAN BERNARDINO CLOUDY    46  41  81 CALM      30.21R
RIVERSIDE AP   CLOUDY    49  44  83 NE5       30.20R
RIV CYN CREST    N/A     50  50 100 SW2         N/A
MORENO VALLEY    N/A     49  49  98 CALM      29.38R
MARCH ARB      CLOUDY    45  45 100 S3        30.20R
HORSETHIEF CYN   N/A     48  43  82 CALM      30.21R
PERRIS           N/A     46  45  97 CALM      30.22R
MENIFEE          N/A     47  46  98 CALM      30.31R
HEMET EAST       N/A     49  39  67 CALM      30.22R
FRENCH VALLEY  FAIR      46  43  87 CALM      30.21R
TEMECULA         N/A     46  44  96 CALM      30.19R

$$

SAN BERNARDINO AND RIVERSIDE COUNTY MOUNTAINS

CITY           SKY/WX    TMP DP  RH WIND       PRES   REMARKS
BIG BEAR AP    PTSUNNY   39  32  75 SW6       30.23R WCI  35
ANGELUS OAKS     N/A     42  34  73 CALM      30.20R
PINE COVE        N/A     41  26  54 NW6       30.20R

$$

SOUTHERN DESERT INCLUDING THE COACHELLA VALLEY

CITY           SKY/WX    TMP DP  RH WIND       PRES   REMARKS
PALM SPRINGS   PTSUNNY   55  43  63 W5        30.20R
THOUSAND PALMS   N/A     51  44  78 CALM      30.15R
PALM DESERT      N/A     50  47  88 CALM      30.46S
THERMAL        PTSUNNY   50  42  74 NW3       30.17R
BLYTHE         CLOUDY    49  43  80 W5        30.19R
IMPERIAL AP    CLOUDY    49  43  80 W3        30.16R
EL CENTRO NAS  CLOUDY    50  43  77 CALM      30.17R
YUMA AZ        PTSUNNY  N/A N/A N/A NE7       30.16R
MEXICALI       CLOUDY    50  45  81 N3        30.16

$$

UPPER DESERT

CITY           SKY/WX    TMP DP  RH WIND       PRES   REMARKS
VICTORVILLE AP CLOUDY    45  39  81 S3        30.19R
HESPERIA         N/A     47  38  72 SE2       30.35R
APPLE VALLEY     N/A     42  37  80 CALM      30.22R
PALMDALE       CLOUDY    45  40  82 NE5       30.20R
LANCASTER      PTSUNNY   43  39  86 CALM      30.20R
EDWARDS AFB    CLOUDY    42  41  94 NE2       30.19R
DAGGETT        PTSUNNY   44  39  82 CALM      30.20F
29 PALMS N     MOSUNNY   45  36  70 W6        30.26R
NEEDLES        CLOUDY    48  39  71 S3        30.21R

$$

REGIONAL REPORTS

CITY           SKY/WX    TMP DP  RH WIND       PRES   REMARKS
SANTA BARBARA  PTSUNNY   58  52  80 CALM      30.17R
SANDBERG       PTSUNNY   49  42  77 N10G17    30.21R
MT. WILSON       N/A     45  36  70 MISG        N/A
LAS VEGAS NV   CLOUDY    47  37  68 SW7       30.16R
PHOENIX AZ     MOSUNNY   54  39  57 E6        30.14S
TIJUANA        CLOUDY    52  45  76 CALM      30.23R
ENSENADA NW      N/A     56  32  40 CALM      30.18R

$$

OFFSHORE ISLANDS

CITY           SKY/WX    TMP DP  RH WIND       PRES   REMARKS
CATALINA ARPT  CLOUDY    53  52  96 W9        30.20S
SAN NICOLAS IS CLOUDY   N/A N/A N/A W10       30.20R

$$

MARINE AND OFFSHORE BUOY REPORTS

STATION/POSITION SKY/WX   TEMP    WIND        PRES    SWELL
                          AIR SEA DIR/SP/G            HT/PER/DIR
                          (F)     (DEG/KT/KT) (MB)    (FT/S/D)
TANNER BANKS               63 64  320/  8/ 10 1022.5R  10/310/19
S CLEMENTE BASIN           62 65  320/ 14/ 17 1022.3R   5/280/19
SAN NICOLAS IS.               63                N/A    10/310/20
SO. S. ROSA ISLA           62 62  310/ 10/ 12 1021.8R  11/19
W. S. BARBARA CH           61 63  310/  8/ 10 1021.4R  13/290/19
S. MONICA BASIN            61 64  310/  2/  4 1022.4R   3/ 40/19
S PEDRO CHANNEL               64                N/A     2/270/18
DANA POINT                    64                N/A     3/280/11
CMP PENDLETON NS              64                N/A     2/230/20
OCEANSIDE OFFSHR              64                N/A     2/240/13
TORREY PINES OTR              65                N/A     3/280/20
LA JOLLA 1                 59 63   70/  4/  5 1022.5R
MISSION BAY BUOY              64                N/A     3/290/20
SAN DIEGO BAY                 64              1023.2R
POINT LOMA SOUTH              65                N/A     3/270/20

$$




USA.gov is the U.S. government's official web portal to all federal, state and local government web resources and services.